Wetbulb
54.78 55.03 54.80 54.32 54.57 53.59 51.15 55.32 48.17 52.46 55.29 49.91 51.86 48.62 45.74 42.98 44.56 46.05 45.24 45.62 45.34 44.48 43.98 42.76 42.73 41.74 43.13 43.34 42.76 40.33 41.52 40.68 38.16 39.59 40.84 41.68 41.62 41.16 41.63 37.93 37.88 39.43 37.48 37.69
54.86 54.48 54.11 53.36 54.31 51.53 57.50 51.65 49.98 53.00 53.29 46.58 46.54 45.61 43.49 44.02 43.43 43.92 43.62 43.25 43.67 43.67 42.79 40.46 41.06 41.84 42.87 42.11 41.57 40.75 41.87 40.08 37.42 37.74 39.37 40.48 38.11 40.99 40.74 40.91 39.30 35.87 34.89 38.32
54.69 54.58 53.65 52.99 50.46 50.22 52.40 49.84 46.51 48.62 51.10 49.46 46.88 45.12 44.14 41.87 42.95 43.02 43.05 42.34 42.88 41.79 40.84 41.65 40.28 41.07 41.63 41.73 42.20 40.48 40.95 40.36 38.74 36.87 38.55 39.50 38.60 39.70 40.12 39.20 36.10 37.72 38.84 40.94
54.69 54.65 53.35 52.70 51.92 52.13 53.20 51.21 48.58 46.09 45.34 45.46 46.39 45.78 44.39 41.54 40.10 42.30 43.07 41.13 41.59 40.82 39.00 39.36 39.02 41.13 41.20 41.07 43.19 41.75 41.29 37.93 39.82 40.00 39.92 39.27 38.00 37.64 38.86 37.52 38.44 36.04 38.89 39.16
54.59 54.46 53.56 52.13 51.24 49.67 52.86 50.01 47.98 46.80 45.83 44.32 44.79 40.93 42.23 41.20 39.80 41.34 40.38 39.95 41.04 40.61 39.47 40.35 39.12 40.94 41.15 40.99 42.24 41.23 41.49 37.86 38.30 36.40 38.75 37.04 35.30 37.89 38.67 38.79 38.84 38.55 38.94 38.60
54.41 54.36 53.69 52.43 51.34 50.10 54.06 50.38 48.91 50.12 42.04 44.68 45.23 45.48 43.54 42.08 42.91 41.19 42.13 41.46 41.65 40.01 41.00 41.84 42.37 43.44 42.25 42.45 41.34 40.85 39.38 38.08 36.19 34.49 36.51 36.97 34.73 39.69 40.50 40.68 41.07 40.16 36.59 41.60
54.26 54.56 54.08 53.00 51.17 51.37 55.65 52.43 51.98 50.51 45.61 46.09 46.45 43.47 43.32 42.52 41.93 41.54 41.83 42.74 41.79 42.39 44.85 44.06 43.61 42.67 41.28 41.38 40.79 42.35 38.89 37.55 37.10 33.18 35.94 30.34 40.72 44.82 42.80 38.80 39.86 41.38 41.46 42.08
54.08 53.93 53.94 52.89 51.32 50.76 53.39 52.74 52.77 52.28 47.45 48.25 44.19 43.67 43.28 42.96 42.38 41.78 41.86 41.85 43.59 45.47 42.44 40.42 38.40 38.29 38.16 38.10 38.43 39.02 40.18 38.53 34.93 32.28 34.02 38.01 40.31 38.22 38.68 36.74 37.74 42.99 42.29 42.04
54.29 53.81 53.66 53.18 51.87 50.97 52.91 50.02 50.79 51.73 50.14 46.73 46.83 44.64 45.02 44.80 44.19 41.96 41.08 42.75 45.05 43.82 42.80 40.65 37.26 37.31 39.37 36.69 35.67 38.06 38.09 39.17 36.14 36.04 29.15 28.90 38.72 39.05 40.79 40.00 35.04 42.50 42.19 42.30
54.00 53.76 53.36 52.89 52.55 51.16 54.09 51.36 51.88 51.30 49.28 46.32 46.67 46.29 45.07 46.53 45.47 45.29 42.52 41.56 41.11 43.03 41.92 38.92 38.97 38.36 39.03 35.96 35.84 33.95 34.67 35.61 32.75 34.38 32.42 35.46 42.93 40.99 40.96 33.03 37.12 43.97 43.65 42.97
53.55 53.47 53.32 52.76 52.57 51.30 53.42 51.09 52.51 51.80 51.42 46.56 45.61 45.49 44.89 44.71 46.15 44.89 43.36 42.13 41.47 41.23 39.28 40.75 41.12 38.78 40.23 37.61 40.18 37.42 36.95 35.77 34.97 35.67 32.42 29.36 43.21 39.78 36.56 42.20 44.17 43.95 43.83 43.74
53.89 52.88 52.95 52.73 52.35 51.68 51.32 51.17 52.59 51.34 51.59 48.37 47.62 47.35 47.42 46.00 45.30 47.42 44.70 45.33 43.97 46.38 43.03 43.67 43.80 39.30 40.05 38.44 35.17 41.20 35.12 39.34 37.72 39.21 38.04 45.18 44.72 42.59 44.93 45.18 43.62 43.77 43.70 44.00
52.77 53.77 52.80 52.35 51.77 51.24 51.87 50.84 50.80 52.50 49.62 48.34 48.08 46.48 47.66 49.59 48.30 47.98 44.72 46.76 46.64 44.72 45.83 45.18 44.02 39.31 42.94 37.09 38.31 39.91 41.41 43.19 38.09 38.78 41.38 42.93 44.48 45.97 46.18 46.03 44.34 44.25 44.28 43.72
51.09 51.68 53.12 52.05 50.70 50.88 51.62 49.97 50.35 50.39 48.66 44.13 44.91 48.51 46.13 47.75 48.35 47.36 46.49 44.75 45.39 45.52 45.64 43.29 42.81 39.86 44.01 39.53 40.71 38.06 41.48 40.46 39.02 38.91 41.32 42.83 43.74 44.41 44.26 44.17 44.73 44.14 44.62 44.08
50.31 50.72 51.06 52.06 49.60 49.73 51.55 50.45 49.91 49.66 46.97 44.37 44.82 46.21 45.46 46.75 46.52 45.89 45.80 45.14 44.31 44.49 42.69 41.22 39.85 43.15 41.40 41.69 40.14 37.22 41.96 39.85 37.63 36.96 41.14 40.85 41.15 43.46 44.58 43.68 42.89 43.48 42.59 42.57
49.69 50.04 50.12 52.04 50.80 48.83 50.67 46.58 50.12 50.49 49.53 45.65 42.22 44.84 42.88 44.21 44.94 44.46 43.92 45.39 44.92 45.04 43.60 42.66 43.72 42.93 40.95 37.43 36.29 41.69 43.52 43.83 43.50 40.17 42.91 42.76 43.30 44.04 44.84 43.09 43.22 43.62 43.03 42.93
49.70 49.83 49.63 50.44 50.90 50.99 46.45 44.47 47.56 48.58 50.38 43.97 40.06 40.68 41.29 42.21 42.86 44.18 44.27 44.06 44.74 43.95 43.07 40.89 41.25 41.12 39.90 38.44 34.26 41.12 43.16 42.91 42.67 43.77 43.24 40.84 42.45 41.27 43.38 43.06 42.99 43.38 42.64 42.70
49.83 49.18 49.84 51.17 49.90 48.61 46.79 49.41 48.89 49.21 46.43 44.34 36.75 37.86 38.64 41.72 40.93 40.46 43.15 42.37 42.43 41.27 41.37 40.60 38.98 40.48 39.29 33.47 39.41 41.75 42.16 42.14 42.67 42.98 43.19 42.40 42.94 42.94 42.55 42.99 42.25 40.74 40.10 40.53
49.47 50.20 49.77 49.70 48.32 45.39 46.21 48.19 48.46 50.79 46.13 37.88 36.35 34.93 36.87 42.33 40.35 41.93 41.34 42.22 37.62 40.80 37.16 38.11 39.03 36.22 31.70 36.91 39.44 40.60 41.19 41.08 41.22 42.39 42.91 43.24 42.09 41.78 41.57 41.46 40.81 39.36 39.10 40.06
49.29 48.72 44.96 41.36 45.56 48.43 48.46 46.36 43.41 42.99 43.32 42.35 36.08 39.63 35.84 40.79 40.53 39.47 39.62 38.16 36.09 32.90 35.30 37.72 32.58 32.39 38.50 40.71 41.85 42.32 42.67 42.97 42.47 40.15 39.54 40.63 40.31 40.47 40.74 40.15 41.06 40.07 39.67 39.70
46.83 43.23 41.62 46.61 48.60 46.68 43.54 38.64 36.93 37.54 34.55 38.30 38.44 37.62 36.42 40.42 36.41 36.98 39.33 34.82 34.14 28.26 33.06 31.31 31.00 31.83 38.07 41.85 42.17 43.88 44.15 43.27 42.71 43.49 43.54 43.56 42.73 40.93 40.32 39.93 40.37 39.32 38.70 37.50
45.84 46.21 47.76 47.35 42.51 39.32 34.91 34.11 35.47 32.85 32.16 36.28 35.65 36.27 37.60 38.65 40.65 36.69 36.14 31.42 31.26 25.52 35.65 29.61 27.50 36.11 40.68 41.77 41.80 43.24 43.48 42.93 42.46 42.94 42.94 43.52 42.83 42.12 41.05 40.43 39.39 38.44 38.66 38.63
47.47 43.78 38.80 38.08 36.41 29.75 29.05 27.27 30.61 31.33 34.65 36.29 36.70 34.28 36.86 38.09 39.17 36.39 34.63 28.86 28.09 36.25 28.37 27.23 33.57 39.15 40.87 42.02 42.24 42.70 43.55 43.20 42.69 41.90 42.55 43.62 43.02 42.73 41.15 39.91 40.40 39.78 38.73 38.58
39.91 33.59 28.66 31.74 28.98 31.54 33.64 34.46 35.82 38.52 38.77 36.76 37.13 34.56 35.30 36.83 34.86 34.51 29.94 33.22 33.93 26.46 24.97 27.83 36.30 39.33 40.43 42.09 42.43 42.05 41.80 42.27 42.00 41.52 41.68 41.92 42.33 41.96 41.39 40.14 40.01 39.01 37.96 38.02
34.70 35.10 29.07 30.50 35.79 36.70 37.57 38.68 37.58 38.79 40.86 39.00 36.12 35.73 35.90 32.98 31.46 31.95 31.04 28.02 25.18 28.30 29.03 35.34 39.20 40.10 40.34 40.34 40.85 40.98 41.19 41.66 41.42 41.51 41.25 41.11 41.23 41.06 40.58 40.38 39.47 38.86 38.55 37.46
37.38 34.86 32.49 34.45 33.78 34.57 35.17 35.82 36.48 39.68 39.93 39.88 39.38 33.86 30.20 29.68 31.74 28.85 27.62 26.56 25.91 31.42 36.41 39.24 40.34 39.82 40.39 40.75 41.22 41.37 41.59 41.52 41.34 41.51 41.58 41.21 40.58 40.15 40.16 39.86 39.02 38.29 37.85 36.70
33.42 32.97 36.79 35.84 36.45 36.39 37.14 38.03 38.30 41.22 38.23 34.89 35.50 29.29 29.08 34.47 29.33 27.80 31.75 29.45 33.79 37.16 39.07 40.41 41.08 40.45 40.48 41.18 41.15 41.42 41.40 41.20 41.37 41.41 41.58 41.21 42.15 41.54 39.42 37.34 38.72 38.27 37.84 37.43
MSLP
1015.84 1015.54 1015.31 1015.20 1015.23 1015.34 1015.54 1013.93 1012.99 1014.11 1014.05 1012.99 1012.37 1012.18 1013.87 1015.19 1015.04 1015.24 1015.02 1014.74 1014.19 1013.78 1013.96 1013.98 1014.45 1015.16 1016.58 1017.81 1017.72 1017.01 1016.90 1015.96 1014.45 1014.06 1014.94 1015.26 1014.82 1014.07 1013.58 1012.92 1011.97 1011.35 1010.82 1009.15
1016.08 1015.63 1015.28 1015.18 1015.16 1015.20 1014.42 1013.21 1013.31 1014.05 1013.83 1012.10 1012.12 1013.77 1014.57 1015.12 1015.41 1015.47 1015.44 1015.16 1015.18 1014.98 1014.63 1014.91 1015.43 1016.39 1018.16 1018.59 1018.40 1018.08 1017.64 1016.03 1014.68 1014.42 1015.33 1015.53 1015.00 1014.27 1014.32 1013.89 1013.97 1012.31 1011.14 1009.41
1016.34 1015.84 1015.48 1015.28 1015.29 1015.37 1015.32 1013.49 1012.75 1013.32 1013.23 1013.01 1012.37 1013.00 1013.91 1015.09 1016.03 1015.92 1015.90 1015.69 1015.73 1015.44 1015.31 1015.71 1015.93 1016.82 1018.38 1019.02 1018.99 1019.31 1018.70 1016.81 1015.50 1014.65 1014.68 1015.33 1014.70 1014.58 1014.73 1014.44 1013.59 1011.73 1010.65 1009.63
1016.51 1016.13 1015.79 1015.53 1015.40 1015.35 1015.20 1013.70 1013.10 1013.72 1012.54 1012.61 1012.70 1013.07 1013.79 1014.57 1015.51 1016.10 1016.19 1015.99 1015.90 1015.63 1015.50 1015.88 1016.13 1016.99 1018.27 1019.08 1019.45 1019.33 1018.73 1017.11 1015.97 1015.45 1015.23 1015.30 1015.05 1014.69 1014.36 1014.04 1013.06 1012.47 1010.78 1010.77
1016.87 1016.44 1016.05 1015.82 1015.50 1015.37 1014.78 1013.50 1013.36 1013.96 1013.37 1013.19 1012.95 1013.88 1013.80 1014.33 1015.39 1015.69 1015.99 1016.10 1016.20 1016.44 1016.27 1016.54 1016.57 1017.09 1017.64 1017.89 1019.24 1019.12 1019.00 1017.92 1017.25 1016.01 1015.56 1015.94 1015.22 1014.42 1013.85 1013.41 1013.09 1012.44 1012.15 1011.58
1017.40 1016.84 1016.39 1016.01 1015.69 1015.56 1014.07 1014.65 1014.42 1013.71 1013.72 1013.21 1013.10 1013.36 1014.06 1014.71 1015.39 1016.61 1016.70 1016.70 1016.76 1017.16 1017.60 1017.81 1017.89 1017.89 1018.14 1018.31 1018.50 1018.87 1019.00 1018.59 1018.04 1016.42 1016.30 1015.77 1014.50 1013.00 1012.82 1012.72 1012.87 1012.79 1012.40 1012.16
1017.95 1017.44 1016.88 1016.36 1015.92 1015.36 1014.42 1014.92 1014.39 1013.49 1013.19 1013.43 1013.49 1014.23 1014.75 1015.27 1015.96 1016.30 1017.25 1017.46 1017.59 1018.81 1018.91 1018.70 1018.44 1018.37 1018.56 1018.66 1019.19 1019.37 1019.00 1019.08 1018.78 1017.62 1016.80 1015.03 1013.24 1013.05 1013.23 1013.74 1013.37 1013.09 1012.75 1012.90
1018.40 1017.97 1017.50 1016.96 1016.40 1015.85 1015.29 1015.85 1015.17 1013.90 1013.36 1013.66 1014.41 1014.79 1015.25 1015.99 1016.67 1017.12 1017.69 1018.61 1019.14 1019.24 1019.04 1018.30 1017.80 1017.92 1018.26 1018.62 1019.46 1019.67 1019.73 1019.35 1018.83 1018.23 1016.62 1014.71 1013.42 1014.37 1014.32 1014.21 1013.28 1012.66 1012.56 1013.12
1018.78 1018.40 1018.05 1017.61 1017.10 1016.69 1016.26 1016.95 1016.87 1015.28 1014.11 1014.27 1014.48 1015.10 1015.52 1015.52 1016.04 1017.38 1018.45 1019.43 1019.62 1019.45 1018.63 1018.10 1017.65 1016.66 1016.59 1017.77 1019.05 1019.97 1020.02 1019.77 1019.34 1017.90 1017.61 1015.59 1014.24 1014.97 1015.21 1015.11 1013.53 1013.14 1013.50 1013.63
1019.00 1018.77 1018.40 1018.11 1017.67 1017.17 1016.60 1017.24 1017.37 1016.32 1015.09 1015.77 1015.64 1015.59 1015.82 1016.09 1016.29 1016.48 1017.97 1018.87 1019.37 1019.48 1018.12 1017.63 1017.29 1016.51 1017.05 1017.02 1017.33 1018.65 1019.12 1019.01 1018.56 1017.82 1017.17 1015.56 1014.20 1015.12 1015.63 1015.07 1014.22 1013.79 1013.88 1013.99
1019.07 1019.05 1018.81 1018.47 1018.08 1017.67 1016.88 1017.79 1017.70 1016.97 1015.83 1016.71 1016.94 1016.98 1017.03 1017.20 1016.91 1016.59 1018.03 1018.53 1018.72 1018.70 1017.94 1017.17 1016.82 1016.99 1016.72 1016.93 1016.47 1017.04 1017.37 1017.51 1017.23 1016.91 1016.43 1015.33 1014.76 1015.53 1015.30 1014.39 1014.26 1014.42 1014.35 1014.24
1019.10 1019.21 1019.16 1018.94 1018.59 1018.06 1017.73 1017.52 1017.84 1017.93 1016.88 1017.69 1018.20 1018.42 1018.70 1018.66 1018.47 1017.73 1018.10 1017.56 1017.41 1017.15 1017.20 1017.17 1017.11 1017.34 1017.35 1017.16 1016.40 1016.77 1016.66 1016.25 1016.10 1015.60 1014.88 1014.29 1014.89 1014.90 1014.67 1014.61 1014.58 1014.63 1014.64 1014.65
1019.15 1019.33 1019.30 1019.27 1019.11 1018.69 1018.01 1018.03 1018.23 1017.56 1017.34 1017.98 1018.20 1018.52 1019.19 1019.31 1019.21 1019.24 1018.45 1017.95 1017.73 1017.95 1018.22 1017.56 1017.63 1017.61 1017.04 1016.75 1015.86 1015.57 1015.82 1016.00 1015.97 1015.65 1014.58 1014.14 1013.90 1013.72 1014.22 1014.54 1014.74 1014.88 1014.78 1014.38
1019.23 1019.31 1019.33 1019.45 1019.55 1019.33 1018.80 1018.45 1018.87 1018.24 1017.89 1017.56 1018.57 1019.44 1019.50 1019.92 1019.67 1019.54 1019.45 1019.31 1019.24 1019.07 1018.88 1018.35 1018.54 1018.35 1017.64 1017.00 1016.53 1016.62 1015.97 1016.26 1015.43 1014.82 1014.67 1014.01 1014.08 1014.24 1014.54 1014.63 1014.59 1014.31 1014.14 1014.11
1019.29 1019.38 1019.39 1019.56 1019.84 1019.68 1019.35 1019.34 1019.52 1019.40 1019.00 1018.05 1018.24 1019.33 1020.00 1020.00 1019.80 1019.71 1019.87 1019.72 1019.52 1019.20 1019.07 1018.95 1019.20 1018.65 1018.67 1018.08 1017.77 1016.71 1015.98 1015.54 1015.38 1014.65 1015.23 1015.08 1014.34 1014.53 1014.65 1014.35 1014.25 1014.21 1014.29 1014.03
1019.35 1019.32 1019.53 1019.67 1019.87 1019.89 1019.35 1019.38 1019.88 1020.02 1019.63 1018.97 1019.02 1019.90 1019.97 1020.30 1020.18 1020.03 1020.00 1019.91 1019.87 1019.63 1019.25 1019.13 1018.89 1019.62 1019.84 1018.88 1017.37 1016.12 1015.61 1015.69 1015.75 1015.78 1015.75 1015.58 1015.04 1014.62 1014.40 1014.30 1014.15 1013.91 1013.89 1013.99
1019.73 1019.65 1019.61 1019.76 1019.86 1019.46 1019.79 1020.49 1020.64 1020.48 1019.90 1019.53 1019.83 1019.77 1020.56 1020.68 1020.58 1020.49 1020.33 1020.57 1020.08 1020.02 1019.70 1019.81 1019.74 1019.83 1020.43 1019.32 1017.58 1016.06 1015.87 1016.11 1016.40 1016.27 1015.85 1015.39 1015.03 1014.45 1014.41 1014.43 1014.26 1014.17 1014.11 1014.16
1019.73 1019.91 1019.98 1019.98 1020.05 1020.41 1020.69 1020.88 1020.95 1020.79 1020.24 1020.41 1020.75 1020.12 1020.51 1020.96 1020.20 1020.19 1020.93 1020.42 1020.70 1020.72 1020.25 1020.77 1020.40 1020.18 1020.14 1018.86 1016.70 1016.32 1016.35 1016.55 1016.40 1016.34 1016.31 1015.80 1015.18 1014.72 1014.27 1014.25 1014.20 1014.03 1014.17 1014.32
1020.07 1019.99 1020.09 1020.09 1020.16 1020.44 1021.05 1021.36 1021.30 1021.00 1021.05 1021.02 1021.36 1020.89 1020.45 1020.82 1020.72 1020.77 1020.95 1020.87 1020.72 1021.35 1021.00 1020.75 1020.69 1019.82 1019.15 1017.08 1016.65 1016.41 1016.52 1016.53 1016.53 1016.42 1016.10 1015.53 1015.20 1014.68 1014.34 1014.18 1014.27 1014.40 1014.31 1014.40
1020.32 1020.27 1019.97 1020.34 1021.25 1021.55 1021.60 1021.63 1021.09 1020.96 1021.10 1021.39 1021.21 1020.98 1020.75 1020.64 1020.71 1020.80 1021.16 1021.73 1021.52 1021.39 1021.14 1021.48 1020.76 1018.97 1017.61 1016.83 1016.47 1016.32 1016.29 1016.41 1016.30 1015.97 1015.60 1015.47 1015.24 1015.02 1014.69 1014.48 1014.42 1014.68 1014.69 1014.63
1020.04 1019.93 1020.45 1021.52 1021.85 1021.56 1021.09 1020.86 1020.97 1021.13 1021.12 1021.12 1021.00 1020.96 1020.60 1021.24 1020.79 1020.69 1021.39 1021.78 1022.06 1021.80 1021.15 1021.16 1019.63 1017.67 1015.60 1015.47 1015.59 1015.67 1015.87 1016.01 1015.97 1015.86 1015.68 1015.30 1015.15 1014.97 1014.81 1014.68 1014.76 1014.99 1015.18 1015.15
1019.63 1019.87 1020.93 1021.38 1021.16 1021.22 1021.09 1020.70 1020.66 1020.79 1020.45 1020.55 1020.71 1020.96 1021.23 1021.47 1021.64 1021.40 1022.42 1022.34 1022.77 1021.65 1021.23 1020.71 1018.46 1015.72 1014.97 1014.86 1015.07 1015.27 1015.44 1015.54 1015.51 1015.45 1015.35 1015.09 1014.97 1014.97 1014.88 1014.89 1015.01 1015.17 1015.64 1015.37
1019.80 1020.17 1020.67 1021.13 1021.32 1020.80 1020.32 1019.92 1019.84 1019.79 1019.72 1020.18 1020.50 1020.90 1021.28 1021.83 1021.79 1021.79 1022.23 1022.40 1021.82 1021.49 1020.48 1018.73 1015.94 1014.55 1014.46 1014.48 1014.73 1014.85 1014.98 1015.03 1015.05 1014.85 1014.63 1014.65 1014.61 1014.63 1014.58 1014.78 1014.98 1015.19 1015.27 1015.47
1019.63 1020.49 1021.09 1020.91 1020.12 1018.93 1018.29 1018.19 1018.02 1018.99 1019.41 1019.89 1020.12 1020.87 1020.96 1021.46 1021.72 1021.77 1021.98 1021.55 1021.32 1020.24 1018.85 1016.27 1014.61 1014.00 1013.91 1014.11 1014.22 1014.33 1014.50 1014.64 1014.46 1014.19 1014.01 1013.94 1014.07 1014.02 1014.17 1014.31 1014.46 1014.90 1015.10 1015.45
1020.04 1020.66 1020.29 1019.79 1018.88 1018.57 1018.25 1018.27 1018.46 1019.02 1019.27 1019.92 1020.80 1021.39 1021.52 1021.88 1022.03 1022.02 1021.63 1021.04 1019.73 1017.93 1015.62 1014.43 1013.68 1013.59 1013.60 1013.73 1013.76 1013.78 1013.81 1013.78 1013.78 1013.67 1013.56 1013.48 1013.69 1013.79 1013.78 1013.93 1014.23 1014.47 1014.86 1015.19
1020.23 1020.52 1019.96 1019.24 1018.50 1018.37 1018.61 1018.41 1018.21 1018.91 1019.18 1019.92 1020.25 1020.83 1021.42 1021.33 1020.96 1020.90 1020.09 1018.93 1016.82 1014.91 1014.17 1013.84 1013.40 1013.25 1013.21 1013.27 1013.41 1013.49 1013.43 1013.31 1013.21 1013.16 1013.03 1012.99 1013.26 1013.39 1013.44 1013.57 1013.74 1014.11 1014.38 1014.93
1020.12 1019.83 1019.40 1018.54 1017.65 1017.40 1017.81 1017.76 1017.92 1018.98 1019.26 1019.15 1019.90 1020.28 1020.23 1020.04 1019.60 1018.84 1017.76 1016.00 1014.78 1014.22 1013.71 1013.39 1013.27 1013.13 1012.98 1012.99 1013.05 1013.00 1012.93 1012.77 1012.57 1012.42 1012.43 1012.56 1012.64 1012.91 1013.11 1013.24 1013.28 1013.67 1014.07 1014.42
Wind_Speed
14 10 5 1 4 5 2 2 3 3 3 6 2 3 3 1 3 2 1 3 3 3 1 3 3 1 4 2 2 2 4 6 6 1 4 2 4 6 7 5 5 7 4 12
15 13 8 2 6 7 2 2 3 2 4 5 6 4 3 1 4 2 2 3 2 1 2 3 2 1 2 1 1 3 2 4 5 6 4 4 5 7 9 7 3 11 12 11
16 15 11 4 3 2 4 3 4 4 4 2 6 5 5 5 1 2 2 1 3 3 5 2 2 4 3 2 1 2 3 5 8 9 7 4 5 6 8 12 8 15 17 21
17 17 15 8 2 3 4 2 2 4 3 4 2 2 4 6 4 2 3 3 6 3 3 4 3 1 4 4 5 3 4 7 7 11 11 10 14 16 15 18 22 19 21 22
17 18 17 15 7 5 4 2 3 3 2 4 5 3 4 4 4 4 4 3 3 3 2 4 1 2 3 1 5 3 2 3 7 10 2 6 13 18 20 21 21 24 23 23
18 18 18 16 14 4 1 2 1 5 3 4 4 3 4 4 5 3 4 1 2 3 4 4 3 3 2 2 2 6 4 4 4 5 2 10 14 8 10 11 11 11 13 13
17 18 19 17 16 13 3 3 2 4 4 4 1 4 2 6 2 3 4 0 2 4 3 2 2 1 1 3 2 5 4 5 3 6 9 6 4 9 7 8 13 13 12 13
15 17 19 19 17 16 4 3 4 2 2 1 5 7 5 7 5 4 5 4 4 4 2 4 4 5 4 3 1 5 5 5 4 4 6 15 13 6 4 4 11 14 10 4
12 13 15 17 16 13 4 6 3 3 2 4 4 8 7 4 4 6 4 4 3 2 3 3 3 4 4 4 5 2 5 7 6 4 4 5 5 4 1 2 10 6 4 10
9 11 13 15 15 13 4 5 6 3 1 3 3 2 4 2 2 2 5 5 5 3 3 4 4 5 1 5 4 6 4 6 11 10 8 9 11 7 2 5 8 10 12 14
6 9 11 12 14 12 4 4 7 5 2 4 1 1 2 2 4 4 7 5 5 4 5 3 4 3 2 3 5 3 7 5 6 5 5 8 7 7 5 12 14 16 16 14
6 6 8 11 13 14 7 3 3 3 3 5 4 5 5 5 7 2 7 5 2 3 5 2 2 3 3 4 5 4 6 9 5 5 6 6 3 14 16 15 16 15 16 15
8 6 3 8 11 12 9 3 3 2 2 4 4 3 5 3 5 6 4 3 4 2 5 4 2 5 3 6 8 12 8 10 7 8 6 15 17 18 13 13 16 17 17 17
7 6 7 6 8 9 10 3 4 2 1 2 5 1 2 4 5 3 3 3 3 3 2 3 2 3 5 5 7 5 8 4 12 18 19 19 16 20 19 20 20 21 20 17
7 7 7 6 6 4 5 5 5 5 5 1 3 4 2 5 4 0 1 5 5 4 3 4 3 4 3 6 3 9 10 16 12 13 18 18 21 21 22 22 22 20 19 18
7 7 7 5 6 2 2 2 4 4 4 2 1 3 1 4 3 3 2 3 3 4 3 3 3 4 4 3 5 7 8 7 10 14 17 18 21 22 19 18 17 17 14 13
6 6 7 6 4 1 2 4 4 4 3 1 2 2 3 2 1 2 2 2 1 3 3 3 5 5 4 3 8 9 13 10 12 14 15 16 18 19 18 17 16 14 11 10
9 7 6 9 9 8 3 4 4 6 2 3 1 1 4 1 2 3 0 2 2 4 2 1 4 3 4 7 13 10 6 10 9 10 14 16 17 17 17 15 14 11 11 9
9 9 7 3 1 2 3 3 2 2 3 1 2 2 1 2 2 1 3 2 2 3 3 3 2 4 8 11 9 7 8 6 11 13 14 15 16 18 17 14 12 11 9 7
11 3 2 3 3 7 7 2 3 1 1 1 2 0 2 2 1 2 2 2 2 3 1 1 4 7 17 14 11 10 7 7 10 12 13 16 16 16 17 15 11 10 8 4
3 3 3 4 5 4 2 2 2 3 2 3 1 3 2 2 3 2 3 1 1 3 4 3 3 5 8 9 9 7 5 7 9 10 13 14 14 15 15 13 10 8 7 4
4 7 5 3 3 0 2 4 3 3 3 4 3 4 3 2 1 2 3 2 1 4 3 3 4 7 7 8 8 8 7 7 9 10 12 14 14 13 12 11 9 5 8 6
3 2 4 3 2 4 6 7 3 3 5 5 6 6 4 3 4 2 3 3 4 1 3 4 7 4 4 7 7 10 10 9 10 11 10 12 12 11 10 11 10 9 8 6
3 3 5 6 6 6 5 4 4 5 2 7 7 5 3 2 4 1 3 2 2 4 5 8 5 5 4 5 7 10 11 11 13 14 12 11 12 11 10 8 8 8 8 7
3 3 5 7 3 2 2 2 4 4 5 7 5 2 2 2 2 3 3 4 6 8 7 5 3 7 8 11 11 11 13 13 14 15 12 11 11 10 10 7 7 8 8 7
3 3 4 2 4 6 6 6 5 5 7 4 2 3 2 4 4 6 9 5 9 5 6 7 10 14 14 14 14 14 15 14 14 13 13 12 10 11 10 8 8 9 9 8
5 4 7 7 2 5 6 5 7 7 6 5 3 6 9 2 6 6 6 8 9 10 10 11 15 16 17 16 15 16 15 16 15 14 13 13 10 9 8 9 9 10 9 8
Wind_Direction
24 22 23 84 167 176 262 277 218 52 270 216 269 241 35 347 146 168 222 292 303 279 187 236 249 311 35 41 322 276 40 314 275 20 97 358 303 284 281 265 277 244 274 279
26 24 24 47 196 199 280 261 81 129 256 224 190 127 128 133 171 189 204 192 283 212 222 236 253 173 99 134 254 343 43 205 281 173 180 176 242 224 244 289 268 255 274 274
25 30 34 62 110 258 273 246 182 147 216 300 305 177 176 157 146 161 223 133 215 195 201 209 169 179 155 178 240 17 295 275 267 285 353 328 247 233 233 236 258 266 262 279
24 26 34 40 45 334 270 249 91 356 169 182 185 198 153 155 161 234 220 182 248 244 218 203 216 164 157 186 150 216 272 272 296 289 292 280 272 272 264 235 249 264 283 292
24 25 27 28 15 337 240 265 197 181 97 159 179 148 176 192 134 183 168 259 143 211 294 1 28 196 239 338 166 238 145 288 325 289 297 288 278 272 262 259 265 268 277 283
24 23 24 24 16 330 232 112 114 287 145 188 230 98 120 144 146 98 27 43 177 202 57 359 26 11 12 337 257 212 242 282 310 275 183 301 275 271 279 259 257 271 281 308
27 24 24 26 15 356 3 37 277 252 139 238 77 137 127 145 100 116 110 115 273 84 132 129 191 161 270 222 157 305 237 251 266 276 300 248 32 323 291 300 287 288 285 280
29 28 27 26 22 0 70 42 297 287 148 123 149 157 127 129 132 89 114 66 49 147 225 252 231 188 203 175 241 235 245 250 265 263 260 294 286 52 23 357 305 291 280 302
32 33 29 27 24 8 71 51 320 303 274 188 103 157 182 172 168 151 111 123 137 211 255 241 253 263 353 163 176 203 217 254 251 214 264 271 35 151 187 270 287 76 16 318
42 37 37 28 23 12 29 60 13 282 80 106 165 178 188 146 172 73 135 161 176 235 214 232 235 246 27 239 232 171 189 218 231 246 247 267 274 138 172 271 341 348 327 314
66 42 38 32 22 15 1 69 18 336 20 103 357 66 145 148 242 210 114 165 187 188 230 248 219 254 165 275 280 196 204 212 217 231 238 268 107 127 248 344 330 326 325 315
83 65 44 34 21 12 322 81 30 332 340 60 42 63 37 11 7 316 178 351 155 209 242 205 304 222 201 275 272 162 245 235 295 231 226 314 198 266 288 295 304 315 314 317
72 50 59 56 31 12 0 87 6 230 197 140 193 150 51 35 353 346 273 182 331 212 8 334 281 248 273 249 236 265 217 247 239 296 266 290 301 297 317 338 332 328 309 296
84 77 58 78 47 23 3 52 2 311 101 270 111 144 92 347 342 311 330 8 74 43 263 253 216 240 216 267 307 278 288 310 274 282 297 298 316 326 332 316 299 294 297 293
100 79 73 99 96 43 69 66 36 13 314 201 112 139 57 348 356 359 197 234 244 239 224 224 234 260 304 261 283 261 249 267 270 293 322 308 308 309 309 304 304 302 306 304
118 106 80 80 139 277 242 135 67 11 354 272 150 89 83 30 49 97 161 208 228 246 253 263 273 40 281 287 281 287 286 310 331 310 317 313 306 305 308 314 313 310 295 295
129 109 99 89 116 341 2 30 38 4 307 307 326 222 101 27 231 127 158 181 201 270 233 253 244 212 213 241 254 270 296 344 315 312 319 310 317 313 310 304 299 295 287 280
131 108 103 112 107 118 137 52 23 330 80 355 173 228 186 310 168 163 332 162 187 182 274 145 234 157 236 252 251 278 325 313 303 327 324 308 309 311 314 313 307 289 277 267
126 119 125 130 39 103 80 125 229 3 339 142 155 213 138 191 98 89 146 290 229 75 252 245 249 204 228 243 266 287 297 296 305 315 310 334 330 322 323 315 306 283 273 266
135 181 167 113 62 116 150 171 167 131 50 68 239 8 187 282 199 129 178 359 17 257 165 100 239 261 253 260 262 259 266 300 315 317 325 329 325 330 325 316 309 290 279 265
195 137 72 82 138 214 213 165 169 157 219 203 175 242 224 161 231 132 6 29 101 258 108 232 248 244 254 225 221 221 253 286 303 300 303 317 321 322 319 314 302 284 264 225
96 98 100 163 188 138 152 202 158 208 233 158 188 155 198 106 301 226 159 214 151 250 140 223 243 244 249 206 219 230 244 266 296 309 300 310 321 322 311 303 297 263 256 226
131 115 91 172 179 177 207 193 204 211 177 168 158 142 151 159 224 182 166 218 232 278 234 241 243 317 256 226 239 249 258 276 293 314 310 296 306 311 305 285 275 260 232 221
118 133 156 225 185 222 186 214 148 89 153 160 155 146 158 122 179 165 224 229 252 246 230 231 263 271 298 264 262 266 267 284 287 301 306 298 294 308 306 284 261 249 230 217
116 146 213 214 250 114 158 99 146 130 151 144 132 114 183 140 174 206 227 216 231 227 232 251 318 312 309 312 303 305 304 293 291 306 299 303 288 294 296 282 250 228 225 206
140 208 227 193 209 202 187 189 171 148 156 149 182 150 162 215 221 200 209 228 224 235 242 263 295 308 306 306 305 306 308 295 294 295 293 298 283 287 287 276 226 222 209 211
199 203 235 207 218 198 172 171 170 160 166 191 143 184 213 175 220 202 223 223 261 285 290 293 299 304 305 306 305 303 296 294 291 290 288 292 286 284 277 261 237 220 217 207